Change the Weather History Date:

Thursday, November 21, 2013

  Actual Average Record
Temperature  
Mean Temperature 54 °F -  
Max Temperature 77 °F 56 °F 79 °F (2010)
Min Temperature 31 °F 35 °F 24 °F (2000)
Degree Days  
Heating Degree Days 10    
Growing Degree Days 4 (Base 50)    
Moisture  
Dew Point 47 °F    
Average Humidity 77    
Maximum Humidity 100    
Minimum Humidity 44    
Precipitation  
Precipitation 0.00 in - - ()
Sea Level Pressure  
Sea Level Pressure 30.05 in    
Wind  
Wind Speed 14 mph (NE)    
Max Wind Speed 31 mph    
Max Gust Speed 40 mph    
Visibility 10 miles    
Events      
Averages and records for this station are not official NWS values.
T = Trace of Precipitation, MM = Missing Value Source: NWS Daily Summary

Daily Weather History Graph

Daily Weather History Graph

Search for Another Location

Airport or City:

Trip Planner

Search our weather history database for the weather conditions in past years. The results will help you decide how hot, cold, wet, or windy it might be!

Date:

Astronomy

Nov. 21, 2013 Rise Set
Actual Time 7:16 AM CST 5:28 PM CST
Civil Twilight 6:49 AM CST 5:56 PM CST
Nautical Twilight 6:19 AM CST 6:26 PM CST
Astronomical Twilight 5:48 AM CST 6:56 PM CST
Moon 9:05 PM CST (11/21) 10:25 AM CST (11/21)
Length of Visible Light 11h 06m
Length of Day
10h 11m
Waning Gibbous, 85% of the Moon is Illuminated
Nov 21
Waning Gibbous
Nov 25
Last Quarter
Dec 2
New
Dec 9
First Quarter
Dec 17
Full

Hourly Weather History & Observations

Time (CST) Temp. Windchill Dew Point Humidity Pressure Visibility Wind Dir Wind Speed Gust Speed Precip Events Conditions
12:58 AM 60.8 °F - 55.9 °F 84% 29.84 in 10.0 mi SE 11.5 mph - N/A   Overcast
1:58 AM 61.5 °F - 56.7 °F 84% 29.84 in 10.0 mi SE 10.4 mph - N/A   Overcast
2:58 AM 60.8 °F - 57.2 °F 88% 29.85 in 10.0 mi SE 9.2 mph - N/A   Overcast
3:53 AM 60.8 °F - 59.0 °F 94% 29.87 in 10.0 mi SE 10.4 mph - N/A   Overcast
3:58 AM 61.0 °F - 58.5 °F 91% 29.84 in 10.0 mi SE 10.4 mph - N/A   Overcast
4:33 AM 60.8 °F - 59.0 °F 94% 29.87 in 10.0 mi SE 10.4 mph - N/A   Overcast
4:58 AM 61.7 °F - 59.4 °F 92% 29.85 in 10.0 mi SE 6.9 mph - N/A   Overcast
5:33 AM 60.8 °F - 59.0 °F 94% 29.88 in 10.0 mi SSE 8.1 mph - N/A   Overcast
5:48 AM 60.8 °F - 59.0 °F 94% 29.89 in 10.0 mi SSE 6.9 mph - N/A   Overcast
5:58 AM 61.7 °F - 59.9 °F 94% 29.88 in 10.0 mi SSE 8.1 mph - N/A   Overcast
6:18 AM 60.8 °F - 59.0 °F 94% 29.90 in 10.0 mi SSE 8.1 mph - N/A   Overcast
6:58 AM 61.2 °F - 60.3 °F 97% 29.90 in 10.0 mi SE 4.6 mph - N/A   Overcast
7:13 AM 60.8 °F - 60.8 °F 100% 29.92 in 10.0 mi SSE 5.8 mph - N/A   Overcast
7:18 AM 60.8 °F - 59.0 °F 94% 29.92 in 10.0 mi SSE 5.8 mph - N/A   Overcast
7:28 AM 59.0 °F - 59.0 °F 100% 29.93 in 10.0 mi SSE 5.8 mph - N/A   Overcast
7:33 AM 59.0 °F - 59.0 °F 100% 29.93 in 10.0 mi SSE 5.8 mph - N/A   Mostly Cloudy
7:58 AM 59.0 °F - 59.0 °F 100% 29.92 in 10.0 mi SSE 5.8 mph - N/A   Scattered Clouds
8:28 AM 62.6 °F - 62.6 °F 100% 29.95 in 10.0 mi South 4.6 mph - N/A   Mostly Cloudy
8:58 AM 64.8 °F - 61.5 °F 89% 29.95 in 10.0 mi South 8.1 mph - N/A   Overcast
9:08 AM 66.2 °F - 60.8 °F 83% 29.97 in 10.0 mi South 6.9 mph - N/A   Mostly Cloudy
9:58 AM 66.9 °F - 61.5 °F 83% 29.97 in 10.0 mi South 8.1 mph - N/A   Mostly Cloudy
10:58 AM 70.7 °F - 60.8 °F 71% 29.97 in 10.0 mi South 6.9 mph - N/A   Scattered Clouds
11:58 AM 73.4 °F - 57.9 °F 58% 29.95 in 10.0 mi West 9.2 mph - N/A   Partly Cloudy
12:58 PM 75.2 °F - 54.5 °F 48% 29.93 in 10.0 mi Variable 5.8 mph - N/A   Scattered Clouds
1:01 PM 77.0 °F - 55.4 °F 47% 29.96 in 10.0 mi North 25.3 mph 40.3 mph N/A   Squalls
1:06 PM 75.2 °F - 53.6 °F 47% 29.97 in 10.0 mi NNW 20.7 mph 29.9 mph N/A   Scattered Clouds
1:07 PM 75.2 °F - 51.8 °F 44% 29.97 in 10.0 mi North 26.5 mph 29.9 mph N/A   Scattered Clouds
1:12 PM 68.0 °F - 50.0 °F 52% 29.99 in 10.0 mi North 24.2 mph 29.9 mph N/A   Mostly Cloudy
1:37 PM 57.2 °F - 46.4 °F 67% 30.02 in 10.0 mi North 23.0 mph 28.8 mph N/A   Scattered Clouds
1:58 PM 56.1 °F - 43.5 °F 63% 30.03 in 10.0 mi North 26.5 mph 36.8 mph N/A   Scattered Clouds
2:28 PM 50.0 °F - 39.2 °F 66% 30.06 in 10.0 mi North 29.9 mph 40.3 mph N/A   Mostly Cloudy
2:58 PM 46.4 °F 37.5 °F 37.4 °F 71% 30.09 in 10.0 mi North 27.6 mph 35.7 mph N/A   Mostly Cloudy
3:08 PM 46.4 °F 37.2 °F 35.6 °F 66% 30.10 in 10.0 mi North 29.9 mph 35.7 mph N/A   Mostly Cloudy
3:13 PM 46.4 °F 37.4 °F 35.6 °F 66% 30.10 in 10.0 mi North 28.8 mph 36.8 mph N/A   Mostly Cloudy
3:18 PM 44.6 °F 34.9 °F 35.6 °F 71% 30.11 in 10.0 mi North 28.8 mph 36.8 mph N/A   Mostly Cloudy
3:58 PM 43.5 °F 33.5 °F 33.6 °F 68% 30.13 in 10.0 mi North 28.8 mph 33.4 mph N/A   Mostly Cloudy
4:58 PM 39.9 °F 28.6 °F 31.3 °F 71% 30.16 in 10.0 mi North 28.8 mph 35.7 mph N/A   Overcast
5:58 PM 36.9 °F 25.4 °F 29.5 °F 75% 30.21 in 10.0 mi North 24.2 mph 33.4 mph N/A   Overcast
6:58 PM 35.2 °F 24.1 °F 27.9 °F 74% 30.28 in 10.0 mi North 20.7 mph 35.7 mph N/A   Overcast
7:58 PM 34.0 °F 21.3 °F 26.2 °F 73% 30.31 in 10.0 mi North 25.3 mph 32.2 mph N/A   Overcast
8:58 PM 33.3 °F 20.3 °F 24.3 °F 70% 30.36 in 10.0 mi North 25.3 mph 31.1 mph N/A   Overcast
9:28 PM 32.0 °F 17.9 °F 23.0 °F 69% 30.36 in 10.0 mi North 28.8 mph 35.7 mph N/A   Overcast
9:33 PM 32.0 °F 19.2 °F 23.0 °F 69% 30.36 in 10.0 mi North 23.0 mph 34.5 mph N/A   Overcast
9:58 PM 32.7 °F 19.1 °F 23.4 °F 68% 30.38 in 10.0 mi North 27.6 mph 35.7 mph N/A   Overcast
10:33 PM 32.0 °F 19.5 °F 23.0 °F 69% 30.39 in 10.0 mi North 21.9 mph 33.4 mph N/A   Overcast
10:58 PM 32.0 °F 19.2 °F 23.0 °F 69% 30.40 in 10.0 mi North 23.0 mph 34.5 mph N/A   Overcast
11:53 PM 32.0 °F 18.9 °F 21.2 °F 64% 30.43 in 10.0 mi North 24.2 mph 29.9 mph N/A   Overcast
11:58 PM 31.8 °F 17.2 °F 21.7 °F 66% 30.43 in 10.0 mi North 31.1 mph 33.4 mph N/A   Overcast